Regional Weather Roundup
Issued by NWS

Home | Current Version | Previous Version | Text Only | Print | Product List | Glossary Off
Versions: 1 2 3 4 5 6 7 8 9 10 11 12 13 14 15 16 17 18 19 20 21 22 23 24 25 26 27 28 29 30 31 32 33 34 35 36 37 38 39 40 41 42 43 44 45 46 47 48 49 50

000
ASUS43 KIND 040909
RWRIN

WEATHER ROUNDUP FOR INDIANA
NATIONAL WEATHER SERVICE INDIANAPOLIS IN
500 AM EDT TUE AUG 04 2015

NOTE: "FAIR" INDICATES FEW OR NO CLOUDS BELOW 12,000 FEET WITH NO
SIGNIFICANT WEATHER AND/OR OBSTRUCTIONS TO VISIBILITY.

* - STATION DOES NOT REPORT WEATHER SUCH AS PRECIPITATION OR FOG.

+ - STATION NOT QUALITY CONTROLLED BY THE NATIONAL WEATHER SERVICE.
    USE DATA WITH CAUTION...ESPECIALLY DEWPOINT AND RELATIVE
    HUMIDITY OBSERVATIONS.

INZ001>003-010>013-019-020-041000-
NORTHWEST INDIANA

CITY           SKY/WX    TMP DP  RH WIND       PRES   REMARKS
GARY /AIRPORT/ CLEAR     59  57  92 SW3       29.93R
KNOX *+        CLEAR     59  55  88 CALM      29.92R
LA PORTE +     CLEAR     58  58 100 CALM      29.93R
MICHIGAN CITY+ CLEAR     57  55  94 CALM      29.93R
MONTICELLO +   CLEAR     60  57  92 CALM      29.93S
RENSSELAER +   CLEAR     59  57  94 SW3       29.94R
VALPARAISO     CLEAR     62  55  77 W5        29.93R

$$

LMZ046-743>745-041000-
SOUTHERN LAKE MICHIGAN

STATION/POSITION TIME  TEMP    WIND        PRES    WAVE
                       AIR SEA DIR/SP/G            HT
                 (UTC) (F)     (DEG/KT/KT) (MB)    (FT)
BURNS HARBOR     0800   68     230/  5/  6 1013.2S
MICHIGAN CITY    0800   65     180/  7/  9   N/A
5NW MICH CITY    0900   72 73  310/  8/ 10   N/A     2

$$

INZ004-005-014>016-021>024-041000-
NORTH CENTRAL INDIANA

CITY           SKY/WX    TMP DP  RH WIND       PRES   REMARKS
GOSHEN         CLEAR     59  53  80 S5        29.92R
LOGANSPORT +   CLEAR     57  54  88 CALM      29.95R
PERU/GRISSOM   CLEAR     58  57  94 SW3       29.94R
ROCHESTER +    CLEAR     63  59  88 SW5       29.94R
SOUTH BEND     CLEAR     61  55  81 SW5       29.93R
WARSAW +       CLEAR     57  55  94 CALM      29.93R

$$

INZ006>009-017-018-025>027-041000-
NORTHEAST INDIANA

CITY           SKY/WX    TMP DP  RH WIND       PRES   REMARKS
ANGOLA *+      CLEAR     55  54  94 CALM      29.92S
AUBURN +       CLEAR     59  52  77 CALM      29.93S
FORT WAYNE     CLEAR     59  56  89 SW7       29.94R
HUNTINGTON +   CLEAR     61  58  88 SW5       29.93S

$$

INZ028-029-035-036-043>045-051>053-041000-
WEST CENTRAL INDIANA

CITY           SKY/WX    TMP DP  RH WIND       PRES   REMARKS
CRAWFORDSVL +  CLEAR     55  55 100 CALM        N/A
GREENCASTLE +  CLEAR     61  55  82 CALM      29.95S
LAFAYETTE      CLEAR     56  55  97 CALM      29.93F
TERRE HAUTE    MOCLDY    62  60  93 CALM      29.95R

$$

INZ030>032-037>040-046>048-054>057-064-065-041000-
CENTRAL INDIANA

CITY           SKY/WX    TMP DP  RH WIND       PRES   REMARKS
FISHERS *+     CLEAR     59  59 100 CALM      29.95R
FRANKFORT +    CLEAR    N/A N/A N/A CALM      29.96S
GREENWOOD *+   CLEAR     59  55  88 CALM      29.96R
INDIANAPOLIS   CLEAR     65  58  78 CALM      29.94R
-EAGLE CREEK   CLEAR     64  60  87 CALM      29.94S
KOKOMO *+      CLEAR     57  54  88 CALM      29.95S
MARION +       CLEAR     56  56  99 CALM      29.95S
MT COMFORT *+  CLEAR     57 N/A N/A CALM      29.96R
SHELBYVILLE    CLEAR     61  58  90 CALM      29.94R
ZIONSVILLE +   CLEAR     57  54  91 CALM      29.96S

$$

INZ033-034-041-042-049-050-058-059-041000-
EAST CENTRAL INDIANA

CITY           SKY/WX    TMP DP  RH WIND       PRES   REMARKS
MUNCIE         CLEAR     57  57 100 CALM      29.95S

$$

INZ060-061-067>069-081>083-085>088-041000-
SOUTHWEST INDIANA

CITY           SKY/WX    TMP DP  RH WIND       PRES   REMARKS
EVANSVILLE     PTCLDY    73  69  87 CALM      29.95R
HUNTINGBURG *+ CLOUDY    70  66  88 CALM      29.95R
WASHINGTON +   CLOUDY    69  65  88 CALM      29.94S

$$

INZ062-063-066-070>080-084-089>092-041000-
SOUTH CENTRAL AND SOUTHEAST INDIANA

CITY           SKY/WX    TMP DP  RH WIND       PRES   REMARKS
BLOOMINGTON    CLEAR     64  62  93 CALM      29.95S
MADISON *+     CLEAR     68  66  94 CALM      29.97R
NORTH VERNON + CLEAR     66  66 100 CALM      29.95S
SEYMOUR +        N/A     64  64 100 CALM      29.94S FOG

$$




USA.gov is the U.S. government's official web portal to all federal, state and local government web resources and services.